User: anonymous   Login
Location: Whitehorse
(60.7170°N, 135.0500°W)
Time: 15:33:18
(UTC-07:00)
Language:

Cosmos 2219 Rocket - Orbit

View from above orbital plane
View from above orbital plane
View from above satellite
View from above satellite

Ground track
Ground track

The orbit data is extracted from the following two-line orbital elements,

1 22220U 92076B   17085.84792045 -.00000274 +00000-0 -11373-3 0  9995
2 22220 070.9993 232.5671 0011557 029.5160 076.9087 14.16411894259119
Epoch (UTC): 26 March 2017 20:21:00
Eccentricity: 0.0011557
inclination: 70.9993°
perigee height: 829 km
apogee height: 846 km
right ascension of ascending node: 232.5671°
argument of perigee: 29.5160°
revolutions per day: 14.16411894
mean anomaly at epoch: 76.9087°
orbit number at epoch: 25911

The dashed part of the orbit path shows where the satellite is in the earth's shadow,  

DLR